Date,TemperatureHighF,TemperatureAvgF,TemperatureLowF,DewpointHighF,DewpointAvgF,DewpointLowF,HumidityHigh,HumidityAvg,HumidityLow,PressureMaxIn,PressureMinIn,WindSpeedMaxMPH,WindSpeedAvgMPH,GustSpeedMaxMPH,PrecipitationSumIn
2013-12-1,50.7,49.4,47.1,50.1,49.2,45.5,100,99,94,30.36,30.16,15,9,22,0.05
2013-12-2,50.0,45.3,35.7,50.0,43.0,33.9,100,92,73,30.16,30.02,19,9,27,0.42
2013-12-3,43.5,36.6,32.5,41.1,35.0,30.4,98,94,86,30.17,30.07,10,3,15,0.15
2013-12-4,38.8,31.6,27.0,30.3,24.4,21.1,91,75,54,30.27,30.17,9,5,13,0.01
2013-12-5,39.0,31.5,24.9,28.9,24.8,21.5,90,77,59,30.23,30.08,7,3,13,0.00
2013-12-6,44.1,37.9,31.6,40.3,34.2,23.0,95,87,60,30.08,29.81,18,8,23,0.44
2013-12-7,32.2,28.0,22.9,29.0,22.4,18.7,90,80,59,30.33,29.99,10,6,16,0.00
2013-12-8,37.8,28.2,21.9,24.0,20.0,16.5,88,73,44,30.52,30.32,11,6,14,0.00
2013-12-9,42.4,32.4,25.6,30.1,22.6,15.9,79,67,52,30.52,30.45,9,6,14,0.00
2013-12-10,45.8,35.1,29.1,37.7,29.8,24.9,89,81,63,30.47,30.28,9,5,14,0.00
2013-12-11,50.4,39.7,32.8,43.8,35.2,29.6,93,84,61,30.29,30.15,6,2,10,0.00
2013-12-12,47.4,41.7,32.6,45.1,39.4,30.5,97,92,84,30.24,30.12,13,5,20,0.29
2013-12-13,48.8,44.4,39.3,48.3,43.8,38.8,99,98,95,30.39,30.23,4,1,7,0.02
2013-12-14,44.2,39.9,36.2,44.0,39.8,35.8,100,100,99,30.44,30.36,5,2,8,0.01
2013-12-15,49.8,41.5,36.1,47.9,40.9,36.1,100,98,91,30.44,30.38,7,3,9,0.01
2013-12-16,53.2,42.7,34.8,48.1,40.7,34.5,100,93,80,30.38,30.12,10,4,12,0.01
2013-12-17,44.7,40.7,34.6,43.4,39.3,33.4,97,95,90,30.20,30.12,13,4,17,0.00
2013-12-18,44.7,41.3,37.3,44.2,40.2,35.6,99,96,80,30.15,30.05,16,6,25,0.00
2013-12-19,41.0,36.8,32.2,36.0,32.6,29.9,91,85,72,30.26,30.13,14,5,17,0.01
2013-12-20,47.2,40.9,32.3,46.8,36.9,28.8,99,86,56,30.21,30.02,12,5,18,0.27
2013-12-21,47.2,45.5,42.7,47.2,45.4,42.7,100,100,99,30.27,30.07,7,3,12,0.06
2013-12-22,48.2,44.6,41.1,48.2,44.5,40.8,100,100,98,30.37,30.26,6,1,12,0.00
2013-12-23,48.6,45.0,41.1,48.6,45.0,41.1,100,100,99,30.49,30.34,7,1,9,0.04
2013-12-24,45.5,41.5,36.7,44.8,40.9,35.6,100,98,95,30.51,30.33,15,5,18,0.01
2013-12-25,46.2,40.2,33.9,43.8,38.8,33.1,98,95,88,30.37,30.26,12,5,17,0.01
2013-12-26,48.8,41.6,35.7,44.2,39.5,34.9,98,93,80,30.28,30.15,7,2,10,0.00
2013-12-27,49.5,42.4,38.6,46.1,41.0,37.3,99,95,85,30.33,30.13,10,2,13,0.01
2013-12-28,45.1,41.0,35.6,43.6,39.6,33.5,99,95,90,30.42,30.32,16,6,21,0.01
2013-12-29,48.7,40.9,34.5,43.1,36.5,32.4,93,85,72,30.36,30.15,10,5,13,0.00
2013-12-30,50.2,43.3,38.0,44.1,38.5,34.2,94,83,71,30.23,30.12,9,1,13,0.00
2013-12-31,46.7,42.1,38.6,44.9,41.1,37.8,98,96,92,30.30,30.21,6,2,8,0.00